STARLINK-35305

Last updated on Wed Dec 31 2025 00:02:06 GMT+0000 (Coordinated Universal Time)

1 66561U 25268E 25364.58335648 .00064945 00000+0 23529-2 0 9999 2 66561 43.0004 17.2896 0001340 282.1705 358.7931 15.27523520 6029
UTC large
Height (km)
Speed (km/s)
/
Latitude / Longitude
Inclination (degrees)
Orbital Period (minutes)
Azimuth
Elevation
Range (km)
Doppler Factor

Next 0 passes for location: London (51.5072 / 0.1276)

Sorry there are no passes over London.